Location: Amarillo Post Office Jordan Station
(35.1907°N, 101.9342°W)
Time: 16:45:04
(UTC+00:00)

PSLV R/B - Pass Details

Date: 24 January 2021
Orbit: 504 x 577 km, 97.8° (Epoch: 01 March)

Event Time Altitude Azimuth Distance (km) Brightness Sun altitude
Rises 13:10:20 0° 1° (N) 2,739 7.2 -8.8°
Reaches altitude 10° 13:12:35 10° 352° (N) 1,852 6.3 -8.4°
Maximum altitude 13:16:13 34° 287° (WNW) 940 4.5 -7.7°
Drops below altitude 10° 13:19:54 10° 222° (SW) 1,869 6.3 -6.9°
Sets 13:22:11 0° 213° (SSW) 2,769 7.3 -6.5°
